RH
27 30 42 44 40 34 34 31 32 34 31 30 30 34 34 27 21 19 17 16 16 16 16 14 15 14 13 12 12 13 21 100 99 100 100 91 100 93 90 100 100 100 98
22 27 29 31 34 41 38 36 38 39 36 36 39 35 30 32 29 25 25 22 22 20 18 15 15 15 13 12 12 12 12 31 100 100 100 100 78 100 98 99 100 100 100
22 25 27 29 32 32 31 31 34 40 39 38 38 44 38 33 35 37 37 35 28 24 21 20 16 15 14 12 12 11 11 12 79 100 100 100 84 94 100 100 100 100 100
18 21 24 23 22 27 28 28 28 25 25 30 33 39 50 45 45 40 41 38 33 27 23 22 19 17 13 14 12 10 10 11 12 94 100 100 93 49 97 100 100 100 100
17 21 21 21 21 19 18 15 15 17 19 20 21 23 30 39 42 43 37 34 31 26 21 19 20 16 13 11 11 10 10 11 11 10 98 100 100 86 77 100 100 100 100
11 12 12 12 13 13 12 12 12 14 15 17 20 22 26 28 34 35 37 34 29 27 22 17 13 11 10 8 8 9 8 9 11 11 12 100 100 100 70 98 100 100 100
8 8 8 8 9 10 10 10 10 10 10 12 13 16 17 21 24 24 25 22 19 16 15 13 12 11 10 9 9 9 9 8 7 10 10 15 100 100 100 90 96 100 100
9 9 10 9 9 9 9 10 11 11 12 13 16 19 21 24 24 21 20 19 18 16 14 14 12 12 10 8 7 7 6 6 6 6 8 10 50 100 100 100 94 100 100
15 14 13 13 14 15 15 15 15 16 21 26 30 27 26 25 25 27 28 26 25 22 18 16 12 10 10 9 7 6 6 6 6 5 6 8 11 100 100 100 100 92 100
19 20 24 27 24 23 25 28 30 31 33 33 35 38 39 38 34 36 34 32 30 26 22 16 12 11 11 8 6 4 4 4 4 4 4 6 9 24 100 100 100 96 99
23 25 33 34 33 38 44 46 48 49 52 56 58 54 48 44 45 44 40 34 32 27 18 16 17 16 11 6 5 6 5 4 4 4 4 4 6 9 52 100 100 100 97
32 30 25 22 31 45 53 53 60 62 63 62 59 55 51 50 53 47 42 38 33 25 21 21 17 14 10 8 7 6 5 5 5 4 4 4 4 6 12 100 100 100 100
22 20 17 22 33 42 46 58 67 68 64 57 61 62 64 62 52 45 40 35 28 24 22 17 12 10 8 6 6 4 4 4 4 4 4 4 4 5 9 75 100 100 100
15 16 23 38 45 48 55 60 63 61 65 75 80 74 64 57 50 44 38 30 25 23 17 12 11 9 6 5 4 2 2 2 2 3 4 4 3 5 7 35 100 100 100
14 18 23 36 50 59 68 69 72 72 80 84 74 68 61 55 47 41 31 26 21 18 14 11 7 4 2 2 2 2 1 1 2 2 3 4 3 4 6 14 100 100 100
16 17 25 38 48 55 67 75 84 86 81 75 68 62 56 49 42 42 31 23 20 16 12 6 4 3 2 2 2 1 2 1 1 1 2 3 3 3 5 8 96 100 100
19 15 19 36 49 56 63 75 85 83 75 66 61 58 60 53 49 35 27 23 23 14 8 5 3 2 2 2 1 1 1 1 1 1 2 3 4 3 5 8 66 100 100
23 19 20 28 40 51 61 68 74 73 66 63 65 68 63 62 46 33 30 23 24 12 6 4 3 3 2 2 1 1 1 2 2 2 2 4 4 4 4 10 78 100 100
24 24 21 26 34 38 51 66 72 72 69 71 75 74 71 65 45 40 29 27 22 10 6 4 4 4 3 2 2 2 2 2 2 2 3 4 5 5 5 10 26 100 100
24 23 24 24 27 31 37 59 77 80 78 79 84 81 75 66 49 43 29 26 18 11 7 5 6 5 4 3 3 3 3 3 2 3 4 5 7 7 6 10 27 100 100
21 24 25 28 29 32 31 44 62 79 81 81 82 79 77 70 55 43 30 26 15 13 9 6 6 7 6 5 4 4 4 3 3 5 6 9 11 9 8 11 52 100 100
18 22 24 26 29 34 34 41 50 64 70 71 73 85 80 76 54 45 33 28 17 16 12 7 6 7 6 7 6 4 4 5 7 8 10 13 15 14 12 14 19 100 100
13 21 25 26 29 29 31 40 48 64 75 74 76 86 85 74 60 45 36 29 20 18 16 9 8 9 7 8 7 5 8 9 9 11 14 14 17 16 17 20 30 100 100
12 15 24 27 30 30 27 32 37 54 65 75 80 79 89 72 62 46 37 33 25 18 18 12 12 11 9 8 10 7 10 18 30 100 44 23 23 21 33 36 92 100 100
12 12 21 28 31 29 28 28 32 48 57 63 73 80 83 72 63 53 41 33 31 17 25 17 12 12 13 10 18 18 23 51 46 31 32 26 23 26 49 29 81 100 100
9 11 17 27 31 29 30 27 28 41 52 57 68 80 76 72 68 58 45 34 33 20 18 27 15 15 14 12 17 12 31 53 64 98 100 99 42 35 99 79 96 100 100
Wind_Speed
107 107 105 102 101 101 100 98 98 99 102 101 99 97 96 96 96 96 97 96 97 98 98 99 100 100 99 99 98 96 96 103 103 106 106 99 94 85 81 76 69 63 59
107 107 107 106 107 107 106 104 103 104 104 101 99 99 101 102 102 100 99 99 99 99 100 103 104 105 103 102 100 99 99 99 106 105 112 109 97 88 83 79 79 71 64
102 105 106 107 108 108 108 107 106 107 108 106 104 104 105 105 105 104 104 104 104 104 103 102 102 102 103 104 104 102 101 102 106 110 110 109 104 96 90 82 85 76 69
101 102 105 105 104 105 107 107 108 107 106 108 111 112 110 108 109 108 106 107 104 104 102 104 104 104 104 104 106 102 102 102 105 111 113 109 109 101 97 88 91 84 76
92 97 98 98 99 99 101 98 96 98 100 102 101 102 106 111 113 111 110 107 107 105 104 103 104 100 98 96 98 100 102 107 109 108 117 114 111 110 101 94 93 91 84
86 89 90 91 94 95 94 94 93 93 94 94 95 97 98 98 101 104 106 107 106 105 104 100 97 96 96 95 97 98 98 101 110 117 112 121 117 114 109 101 98 98 94
84 86 88 87 88 90 92 92 92 91 90 91 91 92 93 92 92 93 95 95 96 98 99 98 96 95 96 96 97 100 103 104 104 116 118 115 124 115 118 109 101 100 99
80 82 84 85 86 87 87 87 89 88 88 87 87 87 88 89 90 91 91 92 95 96 96 95 95 96 96 97 100 101 103 106 107 110 119 121 121 126 119 116 108 108 103
73 75 75 76 76 77 77 78 78 79 80 80 81 82 82 84 86 87 89 90 91 91 92 93 93 94 95 97 100 102 104 108 110 109 113 119 121 130 124 123 116 109 107
70 71 71 70 69 70 70 70 72 73 74 76 76 77 79 81 82 83 84 86 89 90 92 95 94 96 99 103 104 104 103 103 104 107 111 118 122 124 131 124 119 113 107
69 70 68 68 67 68 68 70 71 71 72 72 72 75 75 76 77 80 82 85 87 91 93 94 96 100 103 103 100 100 101 102 104 107 109 112 122 125 130 131 126 117 110
67 69 68 69 70 69 70 69 69 69 70 71 73 72 73 73 75 78 80 84 89 90 92 95 99 100 99 99 96 94 93 95 96 102 111 115 118 125 129 133 130 120 115
68 69 68 68 68 68 68 68 69 68 69 68 68 68 68 71 73 76 81 85 87 87 92 94 94 92 95 92 91 89 88 88 92 98 107 116 116 119 130 136 131 125 116
68 68 67 68 67 68 67 66 67 65 63 63 64 66 68 69 73 76 81 83 82 84 85 86 84 87 86 85 86 83 82 83 82 92 101 111 114 115 129 132 137 126 120
69 68 66 65 64 64 64 63 62 62 61 62 64 66 67 69 72 75 78 77 74 75 79 75 77 77 74 76 74 74 75 80 81 85 94 106 109 113 123 131 137 131 123
70 68 67 66 64 63 61 61 61 61 62 63 64 65 68 68 70 74 73 70 66 72 66 67 65 65 63 64 64 63 68 72 76 80 84 95 100 107 118 131 139 130 121
71 70 68 68 65 63 62 62 62 62 62 63 64 66 67 68 70 68 66 62 62 61 62 58 54 52 52 53 53 56 58 60 66 74 78 84 89 103 115 132 134 142 130
71 72 70 69 67 64 63 63 64 63 62 62 63 63 64 64 65 62 62 54 60 56 55 48 42 42 40 41 43 47 48 52 58 67 72 79 87 100 110 128 136 140 126
69 71 72 72 69 65 63 63 64 64 63 62 62 62 62 62 61 60 56 50 54 48 47 38 32 31 29 31 35 38 40 45 52 63 73 81 86 97 105 130 129 134 129
69 70 72 73 71 67 64 63 63 64 63 61 61 62 60 59 57 57 51 44 44 40 37 27 24 23 23 26 31 35 41 46 55 66 74 78 84 95 102 124 122 137 135
66 67 68 71 71 70 66 63 63 63 63 61 61 59 57 57 55 53 47 38 34 33 33 23 20 20 22 24 30 37 42 45 57 68 74 79 86 88 93 115 124 141 135
63 67 67 68 71 70 67 65 63 61 61 59 57 57 57 57 52 50 42 34 28 25 29 24 21 22 28 29 36 43 51 55 58 67 74 79 84 90 97 111 119 131 131
57 65 66 66 68 70 67 65 63 61 61 59 57 56 55 55 50 46 38 30 22 19 25 28 21 22 30 36 45 53 59 57 63 64 74 86 90 91 93 105 118 131 118
53 59 64 62 64 66 66 65 63 60 59 59 57 53 53 52 47 42 35 26 19 14 20 25 25 26 34 42 53 63 70 72 77 76 74 77 83 82 92 104 115 124 127
52 55 60 60 61 62 64 65 62 60 57 56 54 53 51 49 45 41 34 24 17 11 18 24 30 32 37 48 61 70 79 80 80 83 85 83 82 83 92 103 117 121 124
51 53 59 59 60 60 60 63 61 60 56 53 52 52 49 46 44 40 33 24 19 16 22 25 36 39 42 47 63 75 87 95 96 92 85 89 93 88 84 98 115 121 119
Wind_Direction
249 249 249 251 251 249 250 251 251 252 253 253 253 253 253 254 255 255 255 255 255 253 252 251 252 251 251 250 249 247 244 241 243 244 248 247 245 241 242 239 235 234 240
250 250 251 250 249 250 250 250 250 251 252 254 255 255 255 254 255 256 256 256 255 255 255 253 253 253 252 251 248 246 244 241 237 241 243 246 245 239 238 238 234 232 231
247 248 250 250 251 251 252 252 252 252 252 253 254 255 256 256 257 257 259 259 259 258 259 257 256 256 254 251 250 247 244 241 236 234 239 244 244 239 236 233 233 229 228
248 249 250 250 251 251 252 253 253 254 255 254 253 254 254 255 257 258 259 260 261 261 260 260 260 259 255 253 252 248 244 241 240 233 232 237 243 244 237 232 231 228 231
246 247 249 249 251 252 251 253 255 255 255 256 256 255 255 256 257 258 260 261 260 261 261 259 260 259 257 255 252 249 244 241 239 235 230 229 237 242 239 231 229 229 229
246 247 248 248 249 249 249 249 249 250 251 251 252 253 254 255 256 258 259 260 260 261 261 260 258 258 256 254 251 247 245 240 236 237 232 227 228 237 239 233 229 230 227
247 248 248 248 249 249 249 250 252 253 253 253 253 253 254 256 257 258 259 259 259 259 259 259 260 257 254 251 248 245 243 241 235 235 233 229 225 226 236 235 230 227 229
247 246 247 248 249 250 250 250 250 251 251 253 253 253 254 256 258 259 260 261 260 261 260 260 257 256 254 252 249 246 244 241 238 234 233 228 224 223 230 234 232 226 227
246 246 246 247 247 248 249 250 250 251 251 252 253 254 256 257 258 259 260 261 262 263 262 261 259 258 256 253 250 247 244 243 239 235 233 228 224 221 222 230 231 229 226
243 244 246 246 246 247 247 247 248 249 250 251 254 255 257 258 260 262 263 263 263 263 262 261 261 260 257 254 252 250 248 244 241 238 236 229 223 220 220 225 227 229 227
246 246 245 246 246 245 245 245 247 248 251 254 256 257 259 260 261 262 263 263 264 264 264 265 264 261 259 257 255 253 250 245 240 237 234 232 225 220 219 219 224 227 227
245 246 247 247 246 245 245 247 249 252 254 255 256 258 259 260 261 262 264 265 265 266 267 267 265 263 263 262 259 256 251 247 241 236 233 229 226 222 216 214 220 223 223
244 246 247 247 247 248 248 248 250 252 254 255 256 257 259 261 263 265 267 267 269 271 272 270 268 269 266 264 262 257 251 244 238 233 230 229 224 222 215 213 216 218 220
247 247 246 247 248 248 249 251 252 253 253 254 256 258 260 263 266 268 270 272 275 276 274 272 273 270 269 266 261 256 250 244 235 230 226 226 224 219 215 212 212 216 216
246 247 246 246 246 246 247 248 249 251 253 254 257 261 264 266 269 272 275 279 280 279 277 279 275 272 268 263 258 253 247 241 233 227 222 222 222 217 213 212 208 214 215
244 243 244 244 243 242 242 246 249 251 253 256 258 263 266 269 273 276 282 284 285 281 285 283 278 273 267 263 257 249 243 237 229 224 219 219 217 214 212 210 206 212 211
245 244 242 242 243 243 244 244 247 250 254 258 261 265 269 273 277 282 285 289 291 291 292 285 279 273 266 259 252 244 239 232 225 218 213 211 211 209 210 208 205 210 211
244 244 244 243 243 243 243 245 246 249 253 257 261 266 270 275 280 285 288 297 295 301 293 285 278 271 264 255 247 237 232 224 216 210 203 202 203 204 207 203 203 208 209
244 243 243 243 243 243 243 244 246 249 252 258 262 267 272 277 282 287 293 301 299 304 292 286 278 270 258 246 233 222 216 213 205 199 195 194 198 201 203 202 203 205 209
241 242 242 242 243 243 243 244 246 250 253 257 263 267 272 277 283 289 296 301 306 302 291 284 272 258 251 232 216 207 200 196 192 189 188 189 196 198 200 201 201 203 209
244 242 241 240 242 243 244 244 246 249 253 257 261 266 272 276 282 289 297 300 313 303 291 282 248 235 226 212 204 194 184 184 183 182 182 188 195 197 198 197 201 204 209
240 241 241 239 238 240 242 244 247 250 253 257 261 266 272 274 281 288 295 300 313 297 287 271 234 218 207 192 193 184 177 171 173 178 181 188 195 197 196 197 202 203 207
238 236 238 239 238 238 239 242 245 248 253 256 260 265 268 272 278 284 292 294 306 282 276 262 231 215 207 190 186 182 166 168 169 177 184 189 191 197 197 197 202 201 201
236 232 235 237 239 237 237 239 241 245 249 254 258 261 264 270 276 281 286 289 299 267 261 258 220 216 206 191 183 182 170 168 168 173 185 189 194 199 198 198 200 199 204
234 230 228 231 234 237 236 237 238 241 245 250 254 257 261 267 272 277 282 281 287 246 226 260 224 214 212 195 188 181 172 169 173 178 182 189 193 196 197 201 201 200 204
231 227 225 226 230 234 234 236 236 238 241 246 250 253 258 263 269 273 276 274 269 251 215 226 232 217 213 207 198 195 183 177 177 174 180 191 190 193 197 200 201 204 207